Tracking 30995 objects as of 5-Jul-2025
HD Live streaming from Space Station
objects crossing your sky now

SL-14 DEB

Track SL-14 DEB now!
10-day predictions


NORAD ID: 35525
Int'l Code: 1987-068CU
Perigee: 943.0 km
Apogee: 974.9 km
Inclination: 82.5 °
Period: 104.1 minutes
Semi major axis: 7329 km
RCS: 0.0106 m2 (small)
Launch date: August 18, 1987
Source: Commonwealth of Independent States (former USSR) (CIS)
Launch site: PLESETSK MISSILE AND SPACE COMPLEX (PKMTR)

Note: This is SATELLITE DEBRIS
Your satellite tracking list
STARLINK-1477
Track 1 satellite(s)




NASA's NSSDC Master Catalog

Two Line Element Set (TLE):
1 35525U 87068CU  25185.87129689  .00000146  00000-0  11918-3 0  9994
2 35525  82.5442 233.1417 0021776 132.2975  46.2838 13.83408315116241
Source of the keplerian elements: AFSPC